Kinston, NC

2:47 PM EDT on May 29, 2017 (GMT -0400)
Kinston Regional Jetport / Stallings Field

Weather History for KISO - July, 2013

Change the Weather History Date:

Monday, July 1, 2013

  Actual Average Record
Temperature  
Mean Temperature 76 °F -  
Max Temperature 82 °F 87 °F 98 °F (1968)
Min Temperature 71 °F 69 °F 57 °F (1988)
Cooling Degree Days 12    
Growing Degree Days 26 (Base 50)    
Moisture  
Dew Point 73 °F    
Average Humidity 91    
Maximum Humidity 96    
Minimum Humidity 74    
Precipitation  
Precipitation 0.00 in - - ()
Sea Level Pressure  
Sea Level Pressure 29.96 in    
Wind  
Wind Speed 8 mph (SSE)    
Max Wind Speed 15 mph    
Max Gust Speed 20 mph    
Visibility 8 miles    
Events Rain    
Averages and records for this station are not official NWS values.
T = Trace of Precipitation, MM = Missing Value Source: NWS Daily Summary

Daily Weather History Graph

Daily Weather History Graph

Search for Another Location

Airport or City:

Trip Planner

Search our weather history database for the weather conditions in past years. The results will help you decide how hot, cold, wet, or windy it might be!

Date:

Astronomy

Jul. 01, 2013 Rise Set
Actual Time 5:59 AM EDT 8:29 PM EDT
Civil Twilight 5:29 AM EDT 8:59 PM EDT
Nautical Twilight 4:52 AM EDT 9:35 PM EDT
Astronomical Twilight 4:12 AM EDT 10:16 PM EDT
Moon 1:19 AM EDT (7/1) 2:49 PM EDT (7/1)
Length of Visible Light 15h 29m
Length of Day
14h 29m
Waning Crescent, 35% of the Moon is Illuminated
Jul 1
Waning Crescent
Jul 8
New
Jul 15
First Quarter
Jul 22
Full
Jul 29
Last Quarter

Hourly Weather History & Observations

Time (EDT) Temp. Heat Index Dew Point Humidity Pressure Visibility Wind Dir Wind Speed Gust Speed Precip Events Conditions
12:15 AM 77.0 °F - 74.3 °F 91% 29.90 in 10.0 mi SSE 8.1 mph - N/A   Overcast
12:35 AM 77.0 °F - 74.3 °F 91% 29.89 in 10.0 mi SSE 6.9 mph - N/A   Mostly Cloudy
12:55 AM 77.0 °F - 74.3 °F 91% 29.89 in 10.0 mi SSE 6.9 mph - N/A   Scattered Clouds
1:15 AM 77.2 °F - 74.3 °F 91% 29.90 in 10.0 mi SSE 5.8 mph - N/A   Mostly Cloudy
1:35 AM 77.2 °F - 74.3 °F 91% 29.90 in 10.0 mi SSE 6.9 mph - N/A   Scattered Clouds
1:55 AM 77.2 °F - 74.3 °F 91% 29.89 in 10.0 mi SSE 6.9 mph - N/A   Scattered Clouds
2:15 AM 77.2 °F - 74.5 °F 91% 29.89 in 10.0 mi SSE 6.9 mph - N/A Rain Light Rain
2:35 AM 77.2 °F - 74.7 °F 92% 29.89 in 10.0 mi South 5.8 mph - N/A   Scattered Clouds
2:55 AM 77.2 °F - 74.7 °F 92% 29.88 in 10.0 mi SSE 5.8 mph - N/A   Scattered Clouds
3:15 AM 77.0 °F - 74.7 °F 92% 29.88 in 10.0 mi SSE 6.9 mph - N/A   Scattered Clouds
3:35 AM 77.0 °F - 74.8 °F 93% 29.88 in 7.0 mi SSE 6.9 mph - N/A   Scattered Clouds
3:55 AM 77.0 °F - 74.7 °F 92% 29.88 in 7.0 mi South 5.8 mph - N/A   Scattered Clouds
4:15 AM 77.0 °F - 74.7 °F 92% 29.88 in 7.0 mi SSE 6.9 mph - N/A   Scattered Clouds
4:35 AM 77.0 °F - 74.7 °F 92% 29.88 in 7.0 mi South 8.1 mph - N/A   Mostly Cloudy
4:55 AM 77.0 °F - 74.3 °F 91% 29.89 in 10.0 mi South 8.1 mph - N/A   Scattered Clouds
5:15 AM 77.0 °F - 73.9 °F 90% 29.91 in 10.0 mi South 6.9 mph - N/A   Scattered Clouds
5:35 AM 76.6 °F - 73.8 °F 91% 29.91 in 10.0 mi South 6.9 mph - N/A   Scattered Clouds
5:55 AM 76.5 °F - 73.4 °F 90% 29.92 in 10.0 mi South 8.1 mph - N/A   Scattered Clouds
6:15 AM 76.3 °F - 73.4 °F 91% 29.93 in 10.0 mi South 6.9 mph - N/A   Scattered Clouds
6:35 AM 76.3 °F - 73.4 °F 91% 29.94 in 7.0 mi South 6.9 mph - N/A   Scattered Clouds
6:55 AM 76.5 °F - 73.6 °F 91% 29.94 in 7.0 mi SSE 4.6 mph - N/A   Scattered Clouds
6:56 AM 77.0 °F - 73.4 °F 89% 29.94 in 7.0 mi South 4.6 mph - N/A   Scattered Clouds
7:56 AM 77.0 °F - 73.4 °F 89% 29.95 in 3.0 mi South 6.9 mph - N/A Rain Rain
8:56 AM 75.2 °F - 71.6 °F 89% 29.97 in 4.0 mi South 15.0 mph - N/A Rain Light Rain
9:56 AM 75.2 °F - 73.4 °F 94% 29.98 in 10.0 mi South 8.1 mph - N/A   Scattered Clouds
10:56 AM 78.8 °F - 73.4 °F 83% 29.98 in 10.0 mi SSE 10.4 mph - N/A   Scattered Clouds
11:56 AM 78.8 °F - 73.4 °F 83% 29.97 in 10.0 mi SSE 10.4 mph - N/A   Overcast
12:56 PM 78.8 °F - 73.4 °F 83% 29.98 in 10.0 mi SSE 11.5 mph - N/A   Mostly Cloudy
1:56 PM 80.6 °F 85.4 °F 73.4 °F 79% 29.97 in 10.0 mi SSE 13.8 mph 19.6 mph N/A   Mostly Cloudy
2:56 PM 82.4 °F 88.2 °F 73.4 °F 74% 29.97 in 7.0 mi SSE 12.7 mph - N/A   Mostly Cloudy
3:56 PM 78.8 °F - 73.4 °F 83% 29.98 in 2.0 mi SSE 13.8 mph 19.6 mph N/A Rain Light Rain
4:56 PM 71.6 °F - 69.8 °F 94% 30.00 in 3.0 mi South 8.1 mph - N/A Rain Rain
5:56 PM 73.4 °F - 71.6 °F 94% 29.99 in 7.0 mi South 4.6 mph - N/A Rain Light Rain
6:56 PM 73.4 °F - 71.6 °F 94% 30.00 in 7.0 mi South 10.4 mph - N/A   Scattered Clouds
7:56 PM 75.2 °F - 73.4 °F 94% 30.03 in 5.0 mi South 10.4 mph 16.1 mph N/A   Overcast
8:56 PM 75.2 °F - 73.4 °F 94% 30.03 in 7.0 mi South 5.8 mph - N/A   Mostly Cloudy
9:15 PM 74.3 °F - 72.7 °F 95% 30.03 in 10.0 mi SSE 5.8 mph - N/A   Mostly Cloudy
9:35 PM 74.3 °F - 72.7 °F 95% 30.04 in 10.0 mi South 5.8 mph - N/A   Scattered Clouds
9:55 PM 74.1 °F - 72.9 °F 96% 30.05 in 10.0 mi SSE 6.9 mph - N/A   Scattered Clouds
10:15 PM 74.3 °F - 72.9 °F 95% 30.06 in 10.0 mi SSE 8.1 mph - N/A   Scattered Clouds
10:35 PM 74.3 °F - 72.7 °F 95% 30.05 in 10.0 mi SSE 8.1 mph - N/A   Overcast
10:55 PM 74.3 °F - 72.5 °F 94% 30.05 in 10.0 mi SSE 10.4 mph - N/A   Overcast
11:15 PM 74.5 °F - 72.7 °F 94% 30.06 in 10.0 mi South 11.5 mph - N/A   Overcast
11:35 PM 74.7 °F - 72.9 °F 94% 30.06 in 10.0 mi SSE 9.2 mph - N/A   Overcast
11:55 PM 74.8 °F - 72.9 °F 94% 30.06 in 10.0 mi South 9.2 mph - N/A   Overcast